SWA3466 KMSP-KMDW

Flight info

Callsign SWA3466
Flight time 1h 6m
Altitude 31000
Route RST1 RST OHHMY ENDEE8
Aircraft B738/M-SADE2E3GIJ4RWZ/LB1D1

Departure

Time 2026-05-05 18:58
Airport Minneapolis–Saint Paul International Airport / Wold–Chamberlain Field (KMSP)

Arrival

Time 2026-05-05 20:04
Airport Chicago Midway International Airport (KMDW)
Time Latitude Longitude Altitude Speed Heading
2026-05-05 18:17 44.87634 -93.22657 823 ft 0 kts 134°
2026-05-05 18:44 44.87647 -93.22677 821 ft 4 kts 134°
2026-05-05 18:45 44.87665 -93.22702 824 ft 4 kts 130°
2026-05-05 18:45 44.87679 -93.22729 822 ft 3 kts 113°
2026-05-05 18:45 44.87685 -93.22761 823 ft 3 kts 81°
2026-05-05 18:45 44.87678 -93.22786 823 ft 1 kts 45°
2026-05-05 18:46 44.87675 -93.22790 821 ft 0 kts 45°
2026-05-05 18:53 44.87680 -93.22783 820 ft 6 kts 46°
2026-05-05 18:53 44.87754 -93.22678 824 ft 24 kts 45°
2026-05-05 18:53 44.87880 -93.22497 822 ft 26 kts 45°
2026-05-05 18:53 44.88003 -93.22323 825 ft 24 kts 47°
2026-05-05 18:54 44.88091 -93.22141 822 ft 23 kts 94°
2026-05-05 18:54 44.88015 -93.21950 824 ft 22 kts 120°
2026-05-05 18:54 44.87936 -93.21767 822 ft 22 kts 121°
2026-05-05 18:54 44.87859 -93.21589 820 ft 21 kts 122°
2026-05-05 18:55 44.87783 -93.21418 822 ft 20 kts 120°
2026-05-05 18:55 44.87712 -93.21249 821 ft 20 kts 124°
2026-05-05 18:55 44.87642 -93.21088 824 ft 19 kts 121°
2026-05-05 18:55 44.87574 -93.20932 824 ft 18 kts 121°
2026-05-05 18:56 44.87499 -93.20761 821 ft 26 kts 119°
2026-05-05 18:56 44.87369 -93.20599 823 ft 24 kts 129°
2026-05-05 18:56 44.87282 -93.20405 822 ft 22 kts 122°
2026-05-05 18:56 44.87236 -93.20269 824 ft 13 kts 86°
2026-05-05 18:57 44.87296 -93.20193 825 ft 12 kts 21°
2026-05-05 18:57 44.87376 -93.20192 823 ft 13 kts 324°
2026-05-05 18:57 44.87476 -93.20406 824 ft 39 kts 302°
2026-05-05 18:57 44.87720 -93.20972 823 ft 102 kts 301°
2026-05-05 18:58 44.88179 -93.22045 949 ft 147 kts 300°
2026-05-05 18:58 44.88741 -93.23343 1655 ft 162 kts 301°
2026-05-05 18:58 44.89372 -93.24717 2497 ft 171 kts 301°
2026-05-05 18:58 44.89992 -93.26126 3390 ft 167 kts 300°
2026-05-05 18:59 44.90574 -93.27530 4222 ft 165 kts 297°
2026-05-05 18:59 44.90816 -93.29171 4516 ft 190 kts 259°
2026-05-05 18:59 44.90001 -93.30801 4723 ft 223 kts 217°
2026-05-05 18:59 44.88435 -93.31400 5065 ft 246 kts 186°
2026-05-05 19:00 44.86739 -93.31135 5582 ft 256 kts 168°
2026-05-05 19:00 44.85054 -93.30252 6191 ft 258 kts 161°
2026-05-05 19:00 44.83367 -93.29248 6721 ft 261 kts 160°
2026-05-05 19:00 44.81678 -93.28252 7304 ft 268 kts 162°
2026-05-05 19:01 44.79885 -93.27229 7719 ft 285 kts 162°
2026-05-05 19:01 44.78019 -93.26189 8515 ft 289 kts 162°
2026-05-05 19:01 44.76143 -93.25161 9364 ft 293 kts 162°
2026-05-05 19:01 44.74224 -93.24124 10181 ft 297 kts 162°
2026-05-05 19:02 44.72233 -93.23060 10549 ft 318 kts 163°
2026-05-05 19:02 44.70079 -93.21917 10744 ft 343 kts 162°
2026-05-05 19:02 44.67780 -93.20697 11082 ft 361 kts 162°
2026-05-05 19:02 44.65403 -93.19436 11717 ft 369 kts 162°
2026-05-05 19:03 44.62991 -93.18149 12480 ft 374 kts 161°
2026-05-05 19:03 44.60596 -93.16635 13216 ft 382 kts 157°
2026-05-05 19:03 44.58198 -93.14936 13951 ft 388 kts 156°
2026-05-05 19:03 44.55793 -93.13190 14718 ft 391 kts 156°
2026-05-05 19:04 44.53365 -93.11440 15533 ft 393 kts 158°
2026-05-05 19:04 44.50931 -93.09712 16275 ft 398 kts 159°
2026-05-05 19:04 44.48409 -93.07942 17001 ft 403 kts 159°
2026-05-05 19:04 44.45882 -93.06181 17735 ft 408 kts 160°
2026-05-05 19:05 44.43363 -93.04427 18421 ft 412 kts 161°
2026-05-05 19:05 44.40777 -93.02630 19023 ft 417 kts 161°
2026-05-05 19:05 44.38157 -93.00814 19585 ft 422 kts 162°
2026-05-05 19:05 44.35501 -92.98978 20107 ft 429 kts 163°
2026-05-05 19:06 44.32817 -92.97115 20690 ft 433 kts 164°
2026-05-05 19:06 44.30112 -92.95235 21338 ft 436 kts 164°
2026-05-05 19:06 44.27380 -92.93341 21950 ft 439 kts 165°
2026-05-05 19:06 44.24633 -92.91443 22513 ft 443 kts 165°
2026-05-05 19:07 44.21858 -92.89529 23065 ft 447 kts 165°
2026-05-05 19:07 44.19060 -92.87598 23590 ft 451 kts 165°
2026-05-05 19:07 44.16238 -92.85648 24118 ft 451 kts 165°
2026-05-05 19:07 44.13434 -92.83712 24668 ft 451 kts 166°
2026-05-05 19:08 44.10610 -92.81771 25120 ft 454 kts 166°
2026-05-05 19:08 44.07764 -92.79822 25544 ft 457 kts 166°
2026-05-05 19:08 44.04899 -92.77861 25995 ft 460 kts 166°
2026-05-05 19:08 44.02021 -92.75891 26448 ft 462 kts 166°
2026-05-05 19:09 43.99129 -92.73911 26842 ft 464 kts 166°
2026-05-05 19:09 43.96236 -92.71930 27330 ft 465 kts 166°
2026-05-05 19:09 43.93326 -92.69940 27758 ft 467 kts 166°
2026-05-05 19:09 43.90435 -92.67967 28127 ft 470 kts 166°
2026-05-05 19:10 43.87492 -92.65962 28457 ft 474 kts 166°
2026-05-05 19:10 43.84481 -92.63911 28791 ft 477 kts 166°
2026-05-05 19:10 43.81499 -92.61880 29166 ft 479 kts 166°
2026-05-05 19:10 43.78504 -92.59824 29551 ft 482 kts 165°
2026-05-05 19:11 43.75591 -92.57420 30062 ft 491 kts 159°
2026-05-05 19:11 43.72753 -92.54760 30495 ft 493 kts 157°
2026-05-05 19:11 43.69938 -92.52032 30781 ft 497 kts 157°
2026-05-05 19:11 43.67139 -92.49305 30993 ft 500 kts 157°
2026-05-05 19:12 43.61394 -92.43777 30995 ft 502 kts 157°
2026-05-05 19:12 43.55696 -92.38371 30991 ft 493 kts 158°
2026-05-05 19:13 43.50009 -92.33048 31005 ft 495 kts 158°
2026-05-05 19:13 43.44293 -92.27718 30993 ft 497 kts 158°
2026-05-05 19:14 43.38560 -92.22372 30964 ft 498 kts 157°
2026-05-05 19:14 43.32827 -92.17032 30989 ft 498 kts 157°
2026-05-05 19:15 43.27088 -92.11700 30997 ft 498 kts 157°
2026-05-05 19:15 43.21343 -92.06376 30990 ft 498 kts 157°
2026-05-05 19:16 43.15584 -92.01050 30987 ft 497 kts 157°
2026-05-05 19:16 43.09889 -91.95795 30986 ft 496 kts 157°
2026-05-05 19:17 43.22238 -92.07205 30992 ft 498 kts 157°
2026-05-05 19:17 43.10868 -91.96678 31844 ft 474 kts 158°
2026-05-05 19:17 43.08050 -91.94075 31410 ft 491 kts 158°
2026-05-05 19:18 43.05178 -91.91455 31255 ft 499 kts 158°
2026-05-05 19:18 43.02290 -91.88814 31121 ft 499 kts 157°
2026-05-05 19:18 42.99424 -91.86171 31015 ft 495 kts 157°
2026-05-05 19:18 42.96579 -91.83548 30986 ft 490 kts 157°
2026-05-05 19:19 42.90954 -91.78405 30984 ft 484 kts 158°
2026-05-05 19:19 42.85251 -91.73211 31023 ft 489 kts 158°
2026-05-05 19:20 42.79560 -91.68052 31068 ft 492 kts 158°
2026-05-05 19:20 42.73828 -91.62852 31112 ft 490 kts 158°
2026-05-05 19:21 42.68115 -91.57668 31152 ft 489 kts 158°
2026-05-05 19:21 42.62498 -91.52568 31177 ft 490 kts 157°
2026-05-05 19:22 42.59668 -91.49457 30922 ft 512 kts 145°
2026-05-05 19:22 42.57165 -91.45942 30935 ft 514 kts 142°
2026-05-05 19:22 42.52235 -91.38700 30686 ft 515 kts 142°
2026-05-05 19:23 42.49779 -91.35182 30427 ft 510 kts 143°
2026-05-05 19:23 42.47314 -91.31735 30196 ft 507 kts 143°
2026-05-05 19:23 42.44838 -91.28336 29953 ft 506 kts 144°
2026-05-05 19:23 42.42356 -91.24962 29670 ft 505 kts 144°
2026-05-05 19:24 42.39873 -91.21599 29344 ft 504 kts 144°
2026-05-05 19:24 42.38232 -91.19377 29160 ft 504 kts 144°
2026-05-05 19:24 42.35757 -91.16024 28894 ft 504 kts 144°
2026-05-05 19:24 42.33278 -91.12665 28606 ft 504 kts 143°
2026-05-05 19:25 42.30793 -91.09297 28342 ft 505 kts 143°
2026-05-05 19:25 42.28310 -91.05934 27682 ft 505 kts 143°
2026-05-05 19:25 42.25822 -91.02567 26626 ft 507 kts 143°
2026-05-05 19:25 42.23329 -90.99197 25608 ft 508 kts 143°
2026-05-05 19:26 42.20835 -90.95828 24799 ft 505 kts 143°
2026-05-05 19:26 42.18364 -90.92491 24318 ft 500 kts 143°
2026-05-05 19:26 42.15860 -90.89273 24179 ft 495 kts 146°
2026-05-05 19:26 42.13277 -90.86235 24054 ft 492 kts 148°
2026-05-05 19:27 42.10658 -90.83257 23959 ft 491 kts 148°
2026-05-05 19:27 42.08016 -90.80247 23923 ft 490 kts 148°
2026-05-05 19:27 42.05427 -90.77253 23929 ft 490 kts 148°
2026-05-05 19:27 42.02853 -90.74247 23912 ft 490 kts 148°
2026-05-05 19:28 42.00317 -90.71275 23770 ft 491 kts 148°
2026-05-05 19:28 41.97712 -90.68231 23476 ft 485 kts 147°
2026-05-05 19:28 41.95176 -90.65272 23217 ft 480 kts 147°
2026-05-05 19:28 41.92650 -90.62334 22975 ft 481 kts 147°
2026-05-05 19:29 41.90120 -90.59398 22738 ft 480 kts 147°
2026-05-05 19:29 41.87626 -90.56503 22507 ft 479 kts 147°
2026-05-05 19:29 41.85103 -90.53577 22265 ft 479 kts 147°
2026-05-05 19:29 41.82584 -90.50665 22032 ft 478 kts 147°
2026-05-05 19:30 41.80068 -90.47765 21797 ft 477 kts 147°
2026-05-05 19:30 41.77552 -90.44867 21563 ft 476 kts 147°
2026-05-05 19:30 41.75046 -90.41983 21318 ft 474 kts 147°
2026-05-05 19:30 41.72550 -90.39112 21087 ft 473 kts 146°
2026-05-05 19:31 41.70050 -90.36240 20846 ft 472 kts 146°
2026-05-05 19:31 41.67558 -90.33378 20619 ft 471 kts 146°
2026-05-05 19:31 41.65066 -90.30521 20389 ft 471 kts 146°
2026-05-05 19:31 41.62583 -90.27675 20154 ft 470 kts 146°
2026-05-05 19:32 41.60109 -90.24829 19920 ft 469 kts 146°
2026-05-05 19:32 41.57644 -90.21990 19688 ft 468 kts 146°
2026-05-05 19:32 41.55177 -90.19150 19434 ft 466 kts 146°
2026-05-05 19:32 41.52724 -90.16327 19203 ft 464 kts 146°
2026-05-05 19:33 41.50314 -90.13557 18986 ft 461 kts 145°
2026-05-05 19:33 41.47888 -90.10775 18765 ft 459 kts 145°
2026-05-05 19:33 41.45471 -90.08005 18536 ft 457 kts 145°
2026-05-05 19:33 41.43062 -90.05249 18310 ft 456 kts 145°
2026-05-05 19:34 41.40646 -90.02486 18072 ft 454 kts 145°
2026-05-05 19:34 41.38253 -89.99753 17818 ft 453 kts 145°
2026-05-05 19:34 41.35869 -89.97038 17662 ft 448 kts 146°
2026-05-05 19:35 41.31152 -89.91709 17237 ft 441 kts 146°
2026-05-05 19:35 41.28815 -89.89075 17023 ft 438 kts 146°
2026-05-05 19:35 41.26493 -89.86458 16803 ft 437 kts 145°
2026-05-05 19:35 41.24181 -89.83853 16592 ft 435 kts 145°
2026-05-05 19:36 41.21871 -89.81248 16376 ft 434 kts 145°
2026-05-05 19:36 41.19576 -89.78634 16161 ft 433 kts 145°
2026-05-05 19:36 41.17300 -89.76021 15950 ft 433 kts 143°
2026-05-05 19:36 41.15400 -89.72935 15700 ft 445 kts 122°
2026-05-05 19:37 41.14332 -89.69004 15519 ft 451 kts 104°
2026-05-05 19:37 41.14178 -89.64842 15296 ft 454 kts 86°
2026-05-05 19:37 41.14486 -89.60678 15074 ft 452 kts 85°
2026-05-05 19:37 41.14814 -89.56537 14847 ft 451 kts 85°
2026-05-05 19:38 41.15121 -89.52401 14615 ft 449 kts 85°
2026-05-05 19:38 41.15399 -89.48293 14390 ft 444 kts 86°
2026-05-05 19:38 41.15653 -89.44280 14168 ft 429 kts 86°
2026-05-05 19:38 41.15892 -89.40449 13922 ft 416 kts 86°
2026-05-05 19:39 41.16139 -89.36621 13576 ft 406 kts 85°
2026-05-05 19:39 41.16381 -89.32964 13222 ft 397 kts 85°
2026-05-05 19:39 41.16621 -89.29352 12891 ft 389 kts 85°
2026-05-05 19:39 41.16854 -89.25818 12585 ft 381 kts 85°
2026-05-05 19:40 41.17080 -89.22354 12275 ft 373 kts 86°
2026-05-05 19:40 41.17304 -89.18908 11978 ft 366 kts 86°
2026-05-05 19:40 41.17521 -89.15531 11692 ft 359 kts 86°
2026-05-05 19:40 41.17755 -89.12254 11405 ft 353 kts 82°
2026-05-05 19:41 41.18322 -89.09158 11146 ft 347 kts 72°
2026-05-05 19:41 41.19081 -89.06125 11033 ft 336 kts 70°
2026-05-05 19:41 41.19810 -89.03190 10832 ft 328 kts 71°
2026-05-05 19:41 41.20492 -89.00299 10397 ft 324 kts 72°
2026-05-05 19:42 41.21141 -88.97465 10081 ft 316 kts 72°
2026-05-05 19:42 41.21885 -88.94784 9886 ft 304 kts 64°
2026-05-05 19:42 41.22800 -88.92242 9713 ft 298 kts 62°
2026-05-05 19:42 41.23717 -88.89786 9542 ft 294 kts 62°
2026-05-05 19:43 41.24603 -88.87370 9367 ft 288 kts 62°
2026-05-05 19:43 41.25459 -88.84982 9203 ft 283 kts 63°
2026-05-05 19:43 41.26292 -88.82632 9049 ft 281 kts 63°
2026-05-05 19:43 41.27123 -88.80273 8903 ft 281 kts 63°
2026-05-05 19:44 41.27950 -88.77925 8755 ft 281 kts 63°
2026-05-05 19:44 41.28775 -88.75578 8601 ft 281 kts 63°
2026-05-05 19:44 41.29602 -88.73224 8454 ft 281 kts 63°
2026-05-05 19:44 41.30428 -88.70870 8298 ft 280 kts 63°
2026-05-05 19:45 41.31251 -88.68520 8148 ft 280 kts 63°
2026-05-05 19:45 41.32072 -88.66175 7995 ft 279 kts 63°
2026-05-05 19:45 41.32893 -88.63833 7847 ft 279 kts 63°
2026-05-05 19:45 41.33708 -88.61500 7683 ft 278 kts 63°
2026-05-05 19:46 41.34520 -88.59176 7537 ft 276 kts 63°
2026-05-05 19:46 41.35336 -88.56837 7386 ft 274 kts 63°
2026-05-05 19:46 41.36134 -88.54550 7230 ft 272 kts 63°
2026-05-05 19:46 41.36942 -88.52233 7087 ft 270 kts 63°
2026-05-05 19:47 41.37808 -88.50039 6946 ft 265 kts 52°
2026-05-05 19:47 41.38542 -88.48747 6900 ft 261 kts 47°
2026-05-05 19:47 41.40084 -88.46298 6776 ft 257 kts 46°
2026-05-05 19:47 41.41202 -88.44537 6705 ft 259 kts 46°
2026-05-05 19:48 41.42407 -88.42615 6624 ft 264 kts 47°
2026-05-05 19:48 41.43580 -88.40721 6532 ft 266 kts 47°
2026-05-05 19:48 41.44755 -88.38806 6448 ft 267 kts 47°
2026-05-05 19:48 41.45921 -88.36894 6364 ft 264 kts 47°
2026-05-05 19:49 41.47067 -88.35007 6248 ft 260 kts 47°
2026-05-05 19:49 41.47817 -88.33771 6192 ft 258 kts 47°
2026-05-05 19:49 41.49333 -88.31270 6076 ft 259 kts 47°
2026-05-05 19:49 41.50134 -88.29937 6054 ft 260 kts 51°
2026-05-05 19:50 41.50911 -88.27056 6049 ft 260 kts 82°
2026-05-05 19:50 41.51059 -88.25436 6016 ft 260 kts 82°
2026-05-05 19:50 41.51274 -88.22960 6019 ft 260 kts 82°
2026-05-05 19:50 41.51478 -88.20625 6019 ft 264 kts 82°
2026-05-05 19:51 41.51689 -88.18194 6020 ft 263 kts 82°
2026-05-05 19:51 41.51905 -88.15761 6009 ft 263 kts 82°
2026-05-05 19:51 41.52122 -88.13337 6016 ft 262 kts 82°
2026-05-05 19:51 41.52338 -88.10929 6010 ft 261 kts 82°
2026-05-05 19:52 41.52553 -88.08545 6026 ft 258 kts 82°
2026-05-05 19:52 41.52773 -88.06102 6023 ft 265 kts 82°
2026-05-05 19:52 41.52990 -88.03682 6020 ft 268 kts 82°
2026-05-05 19:52 41.53212 -88.01203 6002 ft 266 kts 82°
2026-05-05 19:53 41.53441 -87.98649 5997 ft 265 kts 82°
2026-05-05 19:53 41.53651 -87.96302 6001 ft 264 kts 82°
2026-05-05 19:53 41.53883 -87.93715 5993 ft 264 kts 82°
2026-05-05 19:53 41.54088 -87.91416 5995 ft 264 kts 83°
2026-05-05 19:54 41.54295 -87.89080 6000 ft 264 kts 82°
2026-05-05 19:54 41.54523 -87.86511 6012 ft 264 kts 82°
2026-05-05 19:54 41.54737 -87.84087 6006 ft 266 kts 82°
2026-05-05 19:54 41.54951 -87.81642 5992 ft 267 kts 82°
2026-05-05 19:55 41.55168 -87.79182 5987 ft 266 kts 82°
2026-05-05 19:55 41.55383 -87.76733 5995 ft 265 kts 82°
2026-05-05 19:55 41.55595 -87.74291 5985 ft 256 kts 82°
2026-05-05 19:55 41.55793 -87.72014 5826 ft 246 kts 82°
2026-05-05 19:56 41.55970 -87.69740 5641 ft 240 kts 84°
2026-05-05 19:56 41.56088 -87.67557 5453 ft 232 kts 85°
2026-05-05 19:56 41.56192 -87.65442 5256 ft 226 kts 85°
2026-05-05 19:56 41.56295 -87.63373 5049 ft 221 kts 83°
2026-05-05 19:57 41.56697 -87.61443 4827 ft 213 kts 60°
2026-05-05 19:57 41.57371 -87.59720 4606 ft 209 kts 70°
2026-05-05 19:57 41.57516 -87.57796 4400 ft 209 kts 88°
2026-05-05 19:57 41.57516 -87.55841 4209 ft 213 kts 89°
2026-05-05 19:58 41.57629 -87.53907 4148 ft 199 kts 68°
2026-05-05 19:58 41.58490 -87.52635 3927 ft 181 kts 17°
2026-05-05 19:58 41.59625 -87.52730 3734 ft 161 kts 325°
2026-05-05 19:58 41.60544 -87.53488 3551 ft 160 kts 339°
2026-05-05 19:59 41.61570 -87.54124 3389 ft 162 kts 327°
2026-05-05 19:59 41.62549 -87.54916 3218 ft 163 kts 328°
2026-05-05 19:59 41.63522 -87.55692 3027 ft 162 kts 327°
2026-05-05 19:59 41.64494 -87.56450 2838 ft 160 kts 328°
2026-05-05 20:00 41.65464 -87.57200 2606 ft 159 kts 328°
2026-05-05 20:00 41.66333 -87.58112 2384 ft 158 kts 314°
2026-05-05 20:00 41.67120 -87.59168 2118 ft 157 kts 313°
2026-05-05 20:00 41.67912 -87.60248 1830 ft 154 kts 313°
2026-05-05 20:01 41.68662 -87.61295 1768 ft 163 kts 313°
2026-05-05 20:01 41.69447 -87.62402 1725 ft 158 kts 313°
2026-05-05 20:01 41.70200 -87.63465 1704 ft 154 kts 313°
2026-05-05 20:01 41.70926 -87.64493 1720 ft 153 kts 312°
2026-05-05 20:02 41.71659 -87.65529 1701 ft 156 kts 313°
2026-05-05 20:02 41.72415 -87.66594 1702 ft 154 kts 311°
2026-05-05 20:02 41.73137 -87.67616 1687 ft 150 kts 313°
2026-05-05 20:02 41.73898 -87.68691 1709 ft 156 kts 313°
2026-05-05 20:03 41.74626 -87.69717 1657 ft 157 kts 312°
2026-05-05 20:03 41.75410 -87.70825 1428 ft 157 kts 313°
2026-05-05 20:03 41.76163 -87.71885 1203 ft 154 kts 313°
2026-05-05 20:03 41.76906 -87.72925 968 ft 145 kts 313°
2026-05-05 20:04 41.77548 -87.73821 812 ft 134 kts 315°
2026-05-05 20:04 41.78163 -87.74713 657 ft 122 kts 312°
2026-05-05 20:04 41.78698 -87.75475 632 ft 96 kts 310°
2026-05-05 20:04 41.78879 -87.75710 630 ft 25 kts 326°
2026-05-05 20:05 41.79038 -87.75810 630 ft 23 kts 342°
2026-05-05 20:05 41.79125 -87.75751 633 ft 15 kts 78°
2026-05-05 20:05 41.79125 -87.75616 633 ft 14 kts 89°
2026-05-05 20:05 41.79130 -87.75487 628 ft 14 kts 92°
2026-05-05 20:06 41.79132 -87.75362 633 ft 13 kts 88°
2026-05-05 20:06 41.79133 -87.75243 634 ft 13 kts 89°
2026-05-05 20:06 41.79137 -87.75125 636 ft 12 kts 86°
2026-05-05 20:06 41.79138 -87.75012 632 ft 12 kts 91°
2026-05-05 20:07 41.79138 -87.74901 636 ft 12 kts 89°
2026-05-05 20:07 41.79140 -87.74793 635 ft 11 kts 89°
2026-05-05 20:07 41.79142 -87.74655 628 ft 21 kts 89°
2026-05-05 20:07 41.79073 -87.74518 629 ft 20 kts 136°
2026-05-05 20:08 41.78984 -87.74396 628 ft 11 kts 153°
2026-05-05 20:08 41.78934 -87.74439 628 ft 18 kts 237°
2026-05-05 20:08 41.78811 -87.74643 631 ft 38 kts 224°
2026-05-05 20:08 41.78663 -87.74785 632 ft 13 kts 178°
2026-05-05 20:09 41.78567 -87.74727 632 ft 21 kts 133°
2026-05-05 20:09 41.78456 -87.74569 634 ft 23 kts 133°
2026-05-05 20:09 41.78371 -87.74444 628 ft 10 kts 112°
2026-05-05 20:09 41.78415 -87.74420 633 ft 10 kts 322°
2026-05-05 20:10 41.78453 -87.74491 632 ft 9 kts 287°
2026-05-05 20:10 41.78433 -87.74523 630 ft 3 kts 182°
2026-05-05 20:10 41.78402 -87.74483 628 ft 6 kts 130°
2026-05-05 20:10 41.78385 -87.74440 635 ft 6 kts 75°
2026-05-05 20:11 41.78412 -87.74405 632 ft 6 kts 33°
2026-05-05 20:11 41.78430 -87.74390 628 ft 0 kts 32°
2026-05-05 20:11 41.78434 -87.74386 628 ft 0 kts 33°